Location: Glion
(46.4330°N, 6.9246°E)
Time: 14:24:26
(UTC+00:00)

ISS - Visible Passes

Search period start: 14 May 2021 00:00
Search period end: 24 May 2021 00:00
Orbit: 417 x 422 km, 51.6° (Epoch: 14 May)

Date Brightness Start Highest point End Pass type
(mag) Time Alt. Az. Time Alt. Az. Time Alt. Az.
14 May -2.1 00:51:48 10° WNW 00:54:57 35° N 00:58:06 10° ENE visible
14 May -3.9 02:28:37 10° WNW 02:32:00 83° SSW 02:35:23 10° ESE visible
14 May -3.5 20:50:01 10° SW 20:53:15 44° SE 20:55:33 17° ENE visible
14 May -2.7 22:26:50 10° W 22:30:05 45° NNW 22:33:21 10° ENE visible
15 May -2.0 00:04:17 10° WNW 00:07:22 33° N 00:10:29 10° ENE visible
15 May -3.5 01:41:11 10° WNW 01:44:33 70° NNE 01:47:55 10° ESE visible
15 May -2.5 03:18:24 10° W 03:21:06 22° SW 03:23:48 10° SSE visible
15 May -2.9 20:02:57 10° SSW 20:05:54 29° SE 20:08:52 10° E visible
15 May -3.2 21:39:14 10° WSW 21:42:34 58° NNW 21:45:55 10° ENE visible
15 May -1.9 23:16:42 10° WNW 23:19:47 32° N 23:22:53 10° ENE visible
16 May -2.9 00:53:44 10° WNW 00:57:03 51° NNE 01:00:22 10° E visible
16 May -3.2 02:30:40 10° WNW 02:33:47 34° SW 02:36:53 10° SSE visible
16 May -3.7 20:51:43 10° WSW 20:55:04 80° NNW 20:58:28 10° ENE visible
16 May -2.0 22:29:06 10° WNW 22:32:12 33° N 22:35:19 10° ENE visible
17 May -2.5 00:06:17 10° WNW 00:09:31 41° NNE 00:12:45 10° E visible
17 May -3.7 01:43:06 10° WNW 01:46:25 54° SSW 01:49:43 10° SE visible
17 May -3.8 20:04:17 10° SW 20:07:38 70° SSE 20:11:00 10° ENE visible
17 May -2.2 21:41:27 10° W 21:44:38 37° N 21:47:48 10° ENE visible
17 May -2.2 23:18:48 10° WNW 23:21:56 35° N 23:22:53 29° NE visible
18 May -1.0 00:55:37 10° WNW 00:55:46 11° WNW 00:55:46 11° WNW visible
18 May -2.6 20:53:49 10° W 20:57:04 44° NNW 21:00:20 10° ENE visible
18 May -2.0 22:31:16 10° WNW 22:34:21 33° N 22:36:27 17° ENE visible
19 May -1.6 00:08:09 10° WNW 00:09:22 20° WNW 00:09:22 20° WNW visible
19 May -3.1 20:06:13 10° WSW 20:09:32 58° NNW 20:12:52 10° ENE visible
19 May -1.9 21:43:40 10° WNW 21:46:45 32° N 21:49:50 10° ENE visible
19 May -2.5 23:20:42 10° WNW 23:23:12 40° NNW 23:23:12 40° NNW visible
20 May -2.0 20:56:02 10° WNW 20:59:09 33° N 21:02:16 10° ENE visible
20 May -2.5 22:33:13 10° WNW 22:36:27 41° NNE 22:37:05 37° NE visible
21 May -2.2 20:08:23 10° W 20:11:33 37° NNW 20:14:44 10° ENE visible
21 May -2.2 21:45:43 10° WNW 21:48:52 35° N 21:51:02 17° ENE visible
21 May -1.8 23:22:32 10° WNW 23:23:58 23° WNW 23:23:58 23° WNW visible
22 May -2.0 20:58:10 10° WNW 21:01:16 33° N 21:04:22 10° ENE visible
22 May -3.2 22:35:04 10° WNW 22:37:57 58° NNW 22:37:57 58° NNW visible
23 May -2.0 20:10:35 10° WNW 20:13:39 32° N 20:16:44 10° ENE visible
23 May -3.1 21:47:36 10° WNW 21:50:55 52° NNE 21:51:57 35° ENE visible
23 May -1.0 23:24:33 10° WNW 23:24:53 12° WNW 23:24:53 12° WNW visible
